Cairns, Australia

9:35 AM AEST on February 26, 2017 (GMT +1000)
Cairns International

Weather History for YBCS - January, 2013

Change the Weather History Date:

Thursday, January 17, 2013

  Actual Average Record
Temperature  
Mean Temperature 80 °F -  
Max Temperature 88 °F 88 °F 95 °F (2008)
Min Temperature 73 °F 74 °F 72 °F (2014)
Cooling Degree Days 16    
Growing Degree Days 30 (Base 50)    
Moisture  
Dew Point 70 °F    
Average Humidity 68    
Maximum Humidity 94    
Minimum Humidity 45    
Precipitation  
Precipitation 0.00 in 0.54 in - ()
Sea Level Pressure  
Sea Level Pressure 29.79 in    
Wind  
Wind Speed 6 mph ()    
Max Wind Speed 15 mph    
Max Gust Speed -    
Visibility 7.2 miles    
Events      
Averages and records for this station are not official NWS values.
T = Trace of Precipitation, MM = Missing Value Source: Averaged Metar Reports

Daily Weather History Graph

Daily Weather History Graph

Search for Another Location

Airport or City:

Trip Planner

Search our weather history database for the weather conditions in past years. The results will help you decide how hot, cold, wet, or windy it might be!

Date:

Astronomy

Jan. 17, 2013 Rise Set
Actual Time 5:56 AM AEST 6:57 PM AEST
Civil Twilight 5:33 AM AEST 7:20 PM AEST
Nautical Twilight 5:05 AM AEST 7:48 PM AEST
Astronomical Twilight 4:37 AM AEST 8:16 PM AEST
Moon 10:48 AM AEST (1/17) 10:54 PM AEST (1/17)
Length of Visible Light 13h 47m
Length of Day
13h 00m
Waxing Crescent, 31% of the Moon is Illuminated
Jan 17
Waxing Crescent
Jan 19
First Quarter
Jan 27
Full
Feb 3
Last Quarter
Feb 10
New

Hourly Weather History & Observations

Time (AEST) Temp. Heat Index Dew Point Humidity Pressure Visibility Wind Dir Wind Speed Gust Speed Precip Events Conditions
12:00 AM 78 °F - 69 °F 66% 29.81 in - SSE 6.9 mph - -  
12:00 AM 77.0 °F - 68.0 °F 74% 29.80 in 6.2 mi SSE 6.9 mph - N/A   Partly Cloudy
12:30 AM 78.8 °F - 68.0 °F 69% 29.80 in 6.2 mi South 5.8 mph - N/A   Partly Cloudy
1:00 AM 77 °F - 69 °F 69% 29.79 in - SSW 1.2 mph - -  
1:00 AM 77.0 °F - 68.0 °F 74% 29.77 in 6.2 mi SSW 1.2 mph - N/A   Partly Cloudy
1:30 AM 75.2 °F - 69.8 °F 83% 29.77 in 6.2 mi SE 8.1 mph - N/A   Partly Cloudy
2:00 AM 75.2 °F - 69.8 °F 83% 29.77 in 6.2 mi West 3.5 mph - N/A   Partly Cloudy
2:30 AM 73.4 °F - 69.8 °F 88% 29.77 in 6.2 mi Calm Calm - N/A   Partly Cloudy
3:00 AM 73 °F - 70 °F 89% 29.77 in - Calm Calm - -  
3:00 AM 73.4 °F - 69.8 °F 88% 29.77 in 6.2 mi Calm Calm - N/A   Partly Cloudy
3:30 AM 73.4 °F - 71.6 °F 94% 29.74 in 6.2 mi Calm Calm - N/A   Partly Cloudy
4:00 AM 74 °F - 71 °F 86% 29.78 in - East 3.5 mph - -  
4:00 AM 73.4 °F - 71.6 °F 94% 29.77 in 6.2 mi East 3.5 mph - N/A   Partly Cloudy
4:30 AM 73.4 °F - 71.6 °F 94% 29.77 in 6.2 mi Calm Calm - N/A   Partly Cloudy
5:00 AM 75.2 °F - 69.8 °F 83% 29.77 in 6.2 mi Calm Calm - N/A   Partly Cloudy
5:30 AM 73.4 °F - 69.8 °F 88% 29.80 in 6.2 mi North 2.3 mph - N/A   Mostly Cloudy
6:00 AM 74 °F - 70 °F 83% 29.81 in 19 mi WSW 1.2 mph - -   Partly Cloudy
6:00 AM 73.4 °F - 69.8 °F 88% 29.80 in 6.2 mi WSW 1.2 mph - N/A   Scattered Clouds
6:30 AM 75.2 °F - 69.8 °F 83% 29.80 in 6.2 mi SE 10.4 mph - N/A   Mostly Cloudy
7:00 AM 78 °F - 70 °F 69% 29.83 in - SE 8.1 mph - -  
7:00 AM 78.8 °F - 69.8 °F 74% 29.80 in 6.2 mi SE 8.1 mph - N/A   Mostly Cloudy
7:30 AM 78.8 °F - 69.8 °F 74% 29.80 in 6.2 mi SE 12.7 mph - N/A   Mostly Cloudy
8:00 AM 82.4 °F 86.3 °F 69.8 °F 66% 29.83 in 6.2 mi SE 9.2 mph - N/A   Mostly Cloudy
8:30 AM 82.4 °F 86.3 °F 69.8 °F 66% 29.80 in 6.2 mi South 9.2 mph - N/A   Mostly Cloudy
9:00 AM 84 °F - 71 °F 56% 29.83 in 19 mi South 8.1 mph - -   Partly Cloudy
9:00 AM 84.2 °F 89.6 °F 71.6 °F 66% 29.83 in 6.2 mi South 8.1 mph - N/A   Mostly Cloudy
9:30 AM 84.2 °F 88.4 °F 69.8 °F 62% 29.80 in 6.2 mi SSE 8.1 mph - N/A   Mostly Cloudy
10:00 AM 86 °F - 71 °F 53% 29.83 in - SE 6.9 mph - -  
10:00 AM 86.0 °F 91.8 °F 71.6 °F 62% 29.80 in 6.2 mi SE 6.9 mph - N/A   Mostly Cloudy
10:30 AM 84.2 °F 89.6 °F 71.6 °F 66% 29.80 in 6.2 mi ESE 6.9 mph - N/A   Mostly Cloudy
11:00 AM 87.8 °F 95.6 °F 73.4 °F 62% 29.80 in 6.2 mi NE 8.1 mph - N/A   Mostly Cloudy
11:30 AM 87.8 °F 93.8 °F 71.6 °F 58% 29.80 in 6.2 mi ENE 15.0 mph - N/A   Mostly Cloudy
12:00 PM 88 °F - 70 °F 45% 29.80 in 19 mi ENE 12.7 mph - -   Partly Cloudy
12:00 PM 87.8 °F 92.6 °F 69.8 °F 55% 29.80 in 6.2 mi ENE 12.7 mph - N/A   Mostly Cloudy
12:30 PM 87.8 °F 92.6 °F 69.8 °F 55% 29.77 in 6.2 mi ENE 13.8 mph - N/A   Mostly Cloudy
1:00 PM 88 °F - 71 °F 47% 29.79 in - NE 12.7 mph - -  
1:00 PM 87.8 °F 93.8 °F 71.6 °F 58% 29.77 in 6.2 mi NE 12.7 mph - N/A   Mostly Cloudy
1:30 PM 87.8 °F 93.8 °F 71.6 °F 58% 29.77 in 6.2 mi NE 13.8 mph - N/A   Mostly Cloudy
2:00 PM 87.8 °F 92.6 °F 69.8 °F 55% 29.77 in 6.2 mi NE 12.7 mph - N/A   Mostly Cloudy
2:30 PM 87.8 °F 92.6 °F 69.8 °F 55% 29.74 in 6.2 mi ENE 13.8 mph - N/A   Mostly Cloudy
3:00 PM 87 °F - 70 °F 48% 29.75 in 19 mi NE 13.8 mph - -   Partly Cloudy
3:00 PM 87.8 °F 92.6 °F 69.8 °F 55% 29.74 in 6.2 mi NE 13.8 mph - N/A   Mostly Cloudy
3:30 PM 87.8 °F 92.6 °F 69.8 °F 55% 29.74 in 6.2 mi ENE 12.7 mph - N/A   Mostly Cloudy
4:00 PM 87 °F - 70 °F 47% 29.75 in - NE 12.7 mph - -  
4:00 PM 87.8 °F 92.6 °F 69.8 °F 55% 29.74 in 6.2 mi NE 12.7 mph - N/A   Mostly Cloudy
4:30 PM 86.0 °F 91.8 °F 71.6 °F 62% 29.74 in 6.2 mi NE 11.5 mph - N/A   Mostly Cloudy
5:00 PM 86.0 °F 91.8 °F 71.6 °F 62% 29.74 in 6.2 mi ENE 12.7 mph - N/A   Mostly Cloudy
5:30 PM 86.0 °F 90.4 °F 69.8 °F 58% 29.74 in 6.2 mi ENE 12.7 mph - N/A   Mostly Cloudy
6:00 PM 84 °F - 70 °F 55% 29.78 in - ENE 11.5 mph - -  
6:00 PM 84.2 °F 88.4 °F 69.8 °F 62% 29.77 in 6.2 mi ENE 11.5 mph - N/A   Mostly Cloudy
6:30 PM 84.2 °F 88.4 °F 69.8 °F 62% 29.77 in 6.2 mi East 9.2 mph - N/A   Mostly Cloudy
7:00 PM 83 °F - 69 °F 55% 29.81 in - East 8.1 mph - -  
7:00 PM 82.4 °F 86.3 °F 69.8 °F 66% 29.80 in 6.2 mi East 8.1 mph - N/A   Mostly Cloudy
7:30 PM 82.4 °F 86.3 °F 69.8 °F 66% 29.80 in 6.2 mi ESE 5.8 mph - N/A   Mostly Cloudy
8:00 PM 80.6 °F 83.9 °F 69.8 °F 70% 29.80 in 6.2 mi SSE 4.6 mph - N/A   Mostly Cloudy
8:30 PM 78.8 °F - 69.8 °F 74% 29.80 in 6.2 mi SSE 3.5 mph - N/A   Mostly Cloudy
9:00 PM 79 °F - 70 °F 66% 29.83 in - South 3.5 mph - -  
9:00 PM 78.8 °F - 69.8 °F 74% 29.83 in 6.2 mi South 3.5 mph - N/A   Mostly Cloudy
9:30 PM 78.8 °F - 69.8 °F 74% 29.80 in 6.2 mi SSE 5.8 mph - N/A   Mostly Cloudy
10:00 PM 78 °F - 70 °F 71% 29.82 in - South 6.9 mph - -  
10:00 PM 78.8 °F - 69.8 °F 74% 29.80 in 6.2 mi South 6.9 mph - N/A   Mostly Cloudy
10:30 PM 78.8 °F - 69.8 °F 74% 29.80 in 6.2 mi SSE 6.9 mph - N/A   Mostly Cloudy
11:00 PM 78.8 °F - 69.8 °F 74% 29.80 in 6.2 mi SSE 6.9 mph - N/A   Mostly Cloudy
11:30 PM 77.0 °F - 69.8 °F 78% 29.80 in 6.2 mi South 1.2 mph - N/A   Mostly Cloudy